TimeCDT,TemperatureF,Dew PointF,Humidity,Sea Level PressureIn,VisibilityMPH,Wind Direction,Wind SpeedMPH,Gust SpeedMPH,PrecipitationIn,Events,Conditions,WindDirDegrees,DateUTC
12:56 AM,54.9,52.9,93,30.10,10.0,Calm,Calm,-,N/A,,Clear,0,2013-06-20 05:56:00
1:56 AM,54.0,52.9,96,30.10,10.0,Calm,Calm,-,N/A,,Clear,0,2013-06-20 06:56:00
2:56 AM,52.9,52.0,97,30.10,10.0,Calm,Calm,-,N/A,,Clear,0,2013-06-20 07:56:00
3:56 AM,52.9,50.9,93,30.11,10.0,Calm,Calm,-,N/A,,Clear,0,2013-06-20 08:56:00
4:56 AM,52.9,52.0,97,30.11,10.0,Calm,Calm,-,N/A,,Mostly Cloudy,0,2013-06-20 09:56:00
5:56 AM,54.0,52.0,93,30.11,10.0,Calm,Calm,-,N/A,,Partly Cloudy,0,2013-06-20 10:56:00
6:56 AM,61.9,48.9,62,30.12,10.0,Variable,4.6,-,N/A,,Clear,0,2013-06-20 11:56:00
7:56 AM,64.9,47.8,54,30.12,10.0,SSE,5.8,-,N/A,,Partly Cloudy,150,2013-06-20 12:56:00
8:56 AM,68.0,50.0,52,30.14,10.0,South,5.8,-,N/A,,Mostly Cloudy,170,2013-06-20 13:56:00
9:56 AM,72.0,52.9,51,30.13,10.0,SE,8.1,-,N/A,,Clear,130,2013-06-20 14:56:00
10:56 AM,77.0,56.8,50,30.12,10.0,South,8.1,-,N/A,,Clear,180,2013-06-20 15:56:00
11:56 AM,81.9,57.9,44,30.11,10.0,South,10.4,-,N/A,,Clear,180,2013-06-20 16:56:00
12:56 PM,84.9,57.9,40,30.10,10.0,South,12.7,-,N/A,,Clear,170,2013-06-20 17:56:00
1:56 PM,86.0,54.9,34,30.08,10.0,South,9.2,-,N/A,,Clear,190,2013-06-20 18:56:00
2:56 PM,86.9,54.9,33,30.07,10.0,SSW,8.1,-,N/A,,Clear,200,2013-06-20 19:56:00
3:56 PM,86.0,54.0,33,30.06,10.0,South,9.2,-,N/A,,Clear,170,2013-06-20 20:56:00
4:56 PM,86.0,54.9,34,30.04,10.0,South,9.2,-,N/A,,Clear,190,2013-06-20 21:56:00
5:56 PM,86.0,52.9,32,30.03,10.0,South,9.2,-,N/A,,Clear,170,2013-06-20 22:56:00
6:56 PM,84.9,52.9,33,30.02,10.0,SSE,9.2,-,N/A,,Clear,160,2013-06-20 23:56:00
7:56 PM,79.9,56.8,45,30.03,10.0,SE,5.8,-,N/A,,Clear,140,2013-06-21 00:56:00
8:56 PM,74.8,57.9,55,30.04,10.0,ESE,3.5,-,N/A,,Clear,110,2013-06-21 01:56:00
9:56 PM,73.9,59.0,59,30.04,10.0,SE,9.2,-,N/A,,Clear,130,2013-06-21 02:56:00
10:56 PM,72.9,57.9,59,30.06,10.0,SE,9.2,-,N/A,,Clear,140,2013-06-21 03:56:00
11:56 PM,70.9,56.8,61,30.06,10.0,SE,5.8,-,N/A,,Clear,130,2013-06-21 04:56:00